map of ORK home
ORK - Airport
Location
City:  Cork, County Cork, Munster, Ireland
Name:Cork International Airport
ICAO:EICK
IATA:ORK

Details
Type:Airport (Aerodrome, Airfield)
Use:International (customs port of entry)
Latitude:5150'29"N (51.841389)
Longitude:829'28"W (-8.491110)
Elevation:502 ft (153 m)
Variation:3.46W (WMM2015 magnetic declination)
0.16 annual change
Runways:2
Longest:6998 × 148 ft (2133 × 45 m), paved

Time
Time Zone:UTC+0 (DST+1)
Local Time:

Weather
METAR:EICK 160730Z 16016KT 9999 SCT002 BKN003 11/11 Q1016 TEMPO 3000 BR
TAF:EICK 152300Z 1600/1624 16008KT 9999 BKN016
TEMPO 1600/1606 3000 BR BKN003 PROB40
TEMPO 1600/1606 0200 FG BKN001
BECMG 1608/1610 15015G26KT
TEMPO 1610/1624 3000 BR BKN003 PROB40
TEMPO 1610/1624 0400 FG BKN001

Related Locations
Nearby:
Farthest:SZS: 12057 mi / 19404 km
Ryan's Creek, Stewart Island, STL, NZ

Find:

   beyond  
but within

Other Information
Maps:
NOTAMs:
Links:
Sources:

  
  • flag of Ireland
  • flag of Munster
  

Sectional Chart

Flight Planning
at skyvector.com

Satellite Image

Google Maps Satellite view

 

Copyright © 2004-2018 Karl L. Swartz. All rights reserved.
The Great Circle Mapper name and logo are trademarks of the Great Circle Mapper.
All other trademarks mentioned herein belong to their respective owners.
Please see credits for attibutions and further copyright information.

  Follow gcmap on Facebook Follow gcmap on Twitter Follow gcmap on Google+ GCmap on LinkedIn

hCard Microformat

Geo Microformat